Location: La Chapelle
(48.3135°N, 1.3085°W)
Time: 23:56:51
(UTC+00:00)

MOS 1 - Pass Details

Date: 03 March 2021
Orbit: 878 x 891 km, 99.1° (Epoch: 20 April)

Event Time Altitude Azimuth Distance (km) Brightness Sun altitude
Exits shadow 19:26:08 18° 135° (SE) 2,058 5.7 -16.3°
Maximum altitude 19:30:14 50° 67° (ENE) 1,123 4.5 -17.0°
Drops below altitude 10° 19:35:42 10° 354° (N) 2,559 6.9 -17.9°
Sets 19:38:09 0° 349° (N) 3,500 7.7 -18.3°
